Weather History for KFSW - April, 2013

Change the Weather History Date:

Saturday, April 6, 2013

  Actual Average Record
Temperature  
Mean Temperature 60 °F -  
Max Temperature 69 °F 56 °F 81 °F (1954)
Min Temperature 50 °F 36 °F 11 °F (1982)
Degree Days  
Heating Degree Days 6    
Growing Degree Days 10 (Base 50)    
Moisture  
Dew Point 34 °F    
Average Humidity 39    
Maximum Humidity 58    
Minimum Humidity 26    
Precipitation  
Precipitation 0.00 in - - ()
Sea Level Pressure  
Sea Level Pressure 29.78 in    
Wind  
Wind Speed 13 mph (South)    
Max Wind Speed 23 mph    
Max Gust Speed 34 mph    
Visibility 10 miles    
Events Rain    
Averages and records for this station are not official NWS values.
T = Trace of Precipitation, MM = Missing Value Source: NWS Daily Summary

Daily Weather History Graph

Daily Weather History Graph

Search for Another Location

Airport or City:

Trip Planner

Search our weather history database for the weather conditions in past years. The results will help you decide how hot, cold, wet, or windy it might be!

Date:

Astronomy

Apr. 06, 2013 Rise Set
Actual Time 6:40 AM CDT 7:35 PM CDT
Civil Twilight 6:12 AM CDT 8:03 PM CDT
Nautical Twilight 5:39 AM CDT 8:36 PM CDT
Astronomical Twilight 5:05 AM CDT 9:11 PM CDT
Moon 4:25 AM CDT (4/6) 4:03 PM CDT (4/6)
Length of Visible Light 13h 50m
Length of Day
12h 55m
Waning Crescent, 15% of the Moon is Illuminated
Apr 6
Waning Crescent
Apr 10
New
Apr 18
First Quarter
Apr 25
Full
May 2
Last Quarter

Hourly Weather History & Observations

Time (CDT) Temp. Dew Point Humidity Pressure Visibility Wind Dir Wind Speed Gust Speed Precip Events Conditions
12:15 AM 53.6 °F 24.8 °F 33% 29.98 in 10.0 mi ESE 11.5 mph 16.1 mph N/A   Clear
12:35 AM 53.6 °F 24.8 °F 33% 29.98 in 10.0 mi ESE 11.5 mph - N/A   Clear
12:55 AM 53.6 °F 23.0 °F 30% 29.98 in 10.0 mi SE 9.2 mph - N/A   Clear
1:15 AM 53.6 °F 24.8 °F 33% 29.98 in 10.0 mi SE 11.5 mph - N/A   Clear
1:35 AM 51.8 °F 24.8 °F 35% 29.98 in 10.0 mi ESE 9.2 mph - N/A   Clear
1:55 AM 51.8 °F 24.8 °F 35% 29.97 in 10.0 mi ESE 9.2 mph - N/A   Clear
2:15 AM 50.0 °F 26.6 °F 40% 29.95 in 10.0 mi ESE 10.4 mph - N/A   Clear
2:35 AM 50.0 °F 26.6 °F 40% 29.95 in 10.0 mi SE 10.4 mph - N/A   Clear
2:55 AM 50.0 °F 26.6 °F 40% 29.94 in 10.0 mi SE 8.1 mph 17.3 mph N/A   Clear
3:15 AM 51.8 °F 26.6 °F 38% 29.94 in 10.0 mi SE 10.4 mph 16.1 mph N/A   Clear
3:35 AM 51.8 °F 26.6 °F 38% 29.93 in 10.0 mi SE 9.2 mph - N/A   Clear
3:55 AM 51.8 °F 28.4 °F 41% 29.92 in 10.0 mi SE 11.5 mph 17.3 mph N/A   Clear
4:15 AM 51.8 °F 28.4 °F 41% 29.92 in 10.0 mi SSE 8.1 mph - N/A   Clear
4:35 AM 51.8 °F 30.2 °F 44% 29.91 in 10.0 mi SSE 12.7 mph 18.4 mph N/A   Clear
4:55 AM 51.8 °F 30.2 °F 44% 29.90 in 10.0 mi SE 13.8 mph 18.4 mph N/A   Clear
5:15 AM 51.8 °F 30.2 °F 44% 29.90 in 10.0 mi SSE 12.7 mph 17.3 mph N/A   Clear
5:35 AM 51.8 °F 32.0 °F 47% 29.89 in 10.0 mi SSE 9.2 mph 18.4 mph N/A   Clear
5:55 AM 51.8 °F 32.0 °F 47% 29.89 in 10.0 mi SSE 11.5 mph 17.3 mph N/A   Clear
6:15 AM 51.8 °F 33.8 °F 50% 29.87 in 10.0 mi SSE 13.8 mph 17.3 mph N/A   Clear
6:35 AM 51.8 °F 33.8 °F 50% 29.87 in 10.0 mi South 12.7 mph 24.2 mph N/A   Scattered Clouds
6:55 AM 51.8 °F 33.8 °F 50% 29.88 in 10.0 mi South 6.9 mph 16.1 mph N/A   Clear
7:15 AM 51.8 °F 33.8 °F 50% 29.88 in 10.0 mi South 10.4 mph 18.4 mph N/A   Clear
7:35 AM 53.6 °F 33.8 °F 47% 29.87 in 10.0 mi South 16.1 mph - N/A   Clear
7:55 AM 51.8 °F 35.6 °F 54% 29.87 in 10.0 mi SSE 12.7 mph 18.4 mph N/A   Clear
8:15 AM 53.6 °F 33.8 °F 47% 29.85 in 10.0 mi SSE 12.7 mph 18.4 mph N/A   Clear
8:35 AM 53.6 °F 33.8 °F 47% 29.84 in 10.0 mi South 13.8 mph - N/A   Clear
8:55 AM 55.4 °F 33.8 °F 44% 29.83 in 10.0 mi SSE 11.5 mph 19.6 mph N/A   Clear
9:15 AM 55.4 °F 33.8 °F 44% 29.81 in 10.0 mi South 15.0 mph 19.6 mph N/A   Clear
9:35 AM 60.8 °F 33.8 °F 36% 29.78 in 10.0 mi South 15.0 mph 24.2 mph N/A   Clear
9:55 AM 62.6 °F 30.2 °F 30% 29.78 in 10.0 mi South 19.6 mph 34.5 mph N/A   Clear
10:15 AM 62.6 °F 30.2 °F 30% 29.77 in 10.0 mi South 23.0 mph 28.8 mph N/A   Clear
10:35 AM 64.4 °F 30.2 °F 28% 29.76 in 10.0 mi South 20.7 mph 28.8 mph N/A   Clear
10:55 AM 64.4 °F 30.2 °F 28% 29.76 in 10.0 mi South 19.6 mph 28.8 mph N/A   Clear
11:15 AM 64.4 °F 30.2 °F 28% 29.76 in 10.0 mi SSW 18.4 mph 27.6 mph N/A   Clear
11:35 AM 64.4 °F 30.2 °F 28% 29.75 in 10.0 mi South 19.6 mph 25.3 mph N/A   Clear
11:55 AM 66.2 °F 30.2 °F 26% 29.75 in 10.0 mi South 18.4 mph 26.5 mph N/A   Clear
12:15 PM 66.2 °F 32.0 °F 28% 29.74 in 10.0 mi South 17.3 mph 21.9 mph N/A   Clear
12:35 PM 64.4 °F 33.8 °F 32% 29.73 in 10.0 mi South 16.1 mph 26.5 mph N/A   Clear
12:55 PM 66.2 °F 33.8 °F 30% 29.71 in 10.0 mi South 19.6 mph 24.2 mph N/A   Clear
1:15 PM 66.2 °F 33.8 °F 30% 29.70 in 10.0 mi South 15.0 mph 23.0 mph N/A   Clear
1:35 PM 66.2 °F 33.8 °F 30% 29.69 in 10.0 mi SSW 18.4 mph 28.8 mph N/A   Clear
1:55 PM 69.8 °F 33.8 °F 27% 29.69 in 10.0 mi SSW 19.6 mph 29.9 mph N/A   Clear
2:15 PM 69.8 °F 33.8 °F 27% 29.67 in 10.0 mi SSW 21.9 mph 25.3 mph N/A   Clear
2:35 PM 68.0 °F 33.8 °F 28% 29.67 in 10.0 mi SSW 21.9 mph 26.5 mph N/A   Clear
2:55 PM 66.2 °F 33.8 °F 30% 29.66 in 10.0 mi SSW 20.7 mph 27.6 mph N/A   Clear
3:15 PM 68.0 °F 35.6 °F 30% 29.66 in 10.0 mi SSW 19.6 mph 28.8 mph N/A   Clear
3:35 PM 66.2 °F 35.6 °F 32% 29.65 in 10.0 mi SSW 16.1 mph 27.6 mph N/A   Clear
3:55 PM 66.2 °F 35.6 °F 32% 29.65 in 10.0 mi SSW 17.3 mph 20.7 mph N/A   Clear
4:15 PM 68.0 °F 37.4 °F 33% 29.64 in 10.0 mi SSW 12.7 mph 21.9 mph N/A   Scattered Clouds
4:35 PM 68.0 °F 37.4 °F 33% 29.64 in 10.0 mi SSW 18.4 mph 33.4 mph N/A   Mostly Cloudy
4:55 PM 66.2 °F 37.4 °F 35% 29.64 in 10.0 mi SSW 15.0 mph 27.6 mph N/A   Overcast
5:15 PM 66.2 °F 39.2 °F 37% 29.64 in 10.0 mi SSW 15.0 mph 23.0 mph N/A   Overcast
5:35 PM 66.2 °F 39.2 °F 37% 29.64 in 10.0 mi SSW 13.8 mph - N/A   Overcast
5:55 PM 68.0 °F 39.2 °F 35% 29.64 in 10.0 mi SSW 12.7 mph 20.7 mph N/A   Overcast
6:15 PM 68.0 °F 41.0 °F 37% 29.65 in 10.0 mi SW 12.7 mph 19.6 mph N/A   Overcast
6:35 PM 68.0 °F 42.8 °F 40% 29.65 in 10.0 mi SSW 10.4 mph 16.1 mph N/A   Overcast
6:55 PM 68.0 °F 42.8 °F 40% 29.65 in 10.0 mi SSW 9.2 mph - N/A   Mostly Cloudy
7:15 PM 68.0 °F 42.8 °F 40% 29.64 in 10.0 mi SSW 11.5 mph - N/A   Scattered Clouds
7:35 PM 66.2 °F 44.6 °F 46% 29.64 in 10.0 mi SSW 11.5 mph - N/A   Mostly Cloudy
7:55 PM 66.2 °F 44.6 °F 46% 29.64 in 10.0 mi SSW 11.5 mph - N/A Rain Light Rain
8:15 PM 66.2 °F 44.6 °F 46% 29.65 in 10.0 mi SW 10.4 mph 17.3 mph N/A   Mostly Cloudy
8:35 PM 66.2 °F 44.6 °F 46% 29.66 in 10.0 mi SW 13.8 mph - N/A   Mostly Cloudy
8:55 PM 66.2 °F 44.6 °F 46% 29.68 in 10.0 mi West 12.7 mph 23.0 mph N/A   Scattered Clouds
9:15 PM 64.4 °F 39.2 °F 40% 29.69 in 10.0 mi West 18.4 mph 24.2 mph N/A   Clear
9:35 PM 64.4 °F 37.4 °F 37% 29.71 in 10.0 mi West 17.3 mph 26.5 mph N/A   Clear
9:55 PM 62.6 °F 39.2 °F 42% 29.73 in 10.0 mi WNW 18.4 mph 31.1 mph N/A   Clear
10:15 PM 60.8 °F 39.2 °F 45% 29.74 in 10.0 mi West 11.5 mph 19.6 mph N/A   Clear
10:35 PM 60.8 °F 39.2 °F 45% 29.74 in 10.0 mi WNW 8.1 mph - N/A   Clear
10:55 PM 59.0 °F 39.2 °F 48% 29.75 in 10.0 mi WNW 8.1 mph - N/A   Clear
11:15 PM 57.2 °F 39.2 °F 51% 29.75 in 10.0 mi WNW 8.1 mph - N/A   Clear
11:35 PM 53.6 °F 39.2 °F 58% 29.77 in 10.0 mi NW 4.6 mph - N/A   Clear
11:55 PM 53.6 °F 39.2 °F 58% 29.77 in 10.0 mi WNW 5.8 mph - N/A   Clear